Regional Weather Roundup
Issued by NWS

Home | Current Version | Previous Version | Graphics & Text | Print | Product List | Glossary On
Versions: 1 2 3 4 5 6 7 8 9 10 11 12 13 14 15 16 17 18 19 20 21 22 23 24 25 26 27 28 29 30 31 32 33 34 35 36 37 38 39 40 41 42 43 44 45 46 47 48 49 50
000
ASUS43 KDTX 232010
RWRMI
MICHIGAN HOURLY REGIONAL WEATHER ROUNDUP
NATIONAL WEATHER SERVICE DETROIT/PONTIAC MI
300 PM EST SUN NOV 23 2014

NOTE: "FAIR" INDICATES FEW OR NO CLOUDS BELOW 12,000 FEET WITH NO
SIGNIFICANT WEATHER AND/OR OBSTRUCTION TO VISIBILITY.

MIZ047>049-052>055-059>063-066>070-074>076-081>083-232100-
SOUTHEAST LOWER MICHIGAN

CITY           SKY/WX    TMP DP  RH WIND       PRES   REMARKS
ADRIAN         CLOUDY    56  48  74 S8        29.71F
ALMA           CLOUDY    50  47  90 SE6       29.68F
ANN ARBOR      CLOUDY    54  46  74 SE8       29.72F
BAD AXE        CLOUDY    47  46  95 S12       29.72F
DETROIT CITY   CLOUDY    55  45  68 SE9       29.75F
DETROIT        CLOUDY    52  44  74 SE7       29.75F
FLINT          CLOUDY    52  45  77 S13       29.73F
GROSSE ILE     PTSUNNY   52  45  76 S6        29.73F
HILLSDALE      CLOUDY    54  49  82 SE7       29.68F
HOWELL         CLOUDY    50  46  84 SE9       29.70F

CITY           SKY/WX    TMP DP  RH WIND       PRES   REMARKS
JACKSON        CLOUDY    53  45  74 SE9       29.67F
LAMBERTVILLE   PTSUNNY   59  46  63 S7        29.72F
LANSING        CLOUDY    51  44  77 SE9       29.68F
LAPEER         NOT AVBL
MASON          CLOUDY    51  46  82 SE7       29.69F
MONROE         PTSUNNY   55  46  71 SE8       29.72F
MT. CLEMENS    CLOUDY    47  47  99 SE8       29.74F
PONTIAC        CLOUDY    48  43  82 SE6       29.74F
PORT HOPE        N/A     48  44  86 S8        29.71F
PORT HURON     CLOUDY    48  45  87 SE9       29.77F
TRI CITIES     CLOUDY    50  46  86 S10       29.70F
YPSILANTI      CLOUDY    57  45  64 SE9       29.74F
$$
MIZ043>046-050>051-056>058-064>065-071>073-077>080-232100-
SOUTHWEST LOWER MICHIGAN

CITY           SKY/WX    TMP DP  RH WIND       PRES   REMARKS
BATTLE CREEK   CLOUDY    53  45  74 SE9       29.66F
BENTON HARBOR  CLOUDY    53  46  77 SE8       29.58F
BIG RAPIDS     LGT RAIN  47  47 100 S7        29.61F
COLDWATER      LGT RAIN  54  48  82 SE6       29.65F
HOLLAND        CLOUDY    52  47  83 SE14      29.61F
GRAND RAPIDS   CLOUDY    51  46  83 SE12      29.64F
KALAMAZOO      CLOUDY    53  46  77 SE6       29.64F
MARSHALL       CLOUDY    52  45  77 SE7       29.66F
MUSKEGON       CLOUDY    52  47  83 SE9       29.58F
$$
MIZ016>042-232100-
NORTHERN LOWER MICHIGAN

CITY           SKY/WX    TMP DP  RH WIND       PRES   REMARKS
ALPENA         CLOUDY    50  43  77 S9        29.67F
BEAVER ISLAND  CLOUDY    49  45  85 S8G16     29.58S
BELLAIRE       CLOUDY    48  44  84 S5        29.62F
CADILLAC       RAIN      46  45  97 S7        29.60F
CHARLEVOIX     CLOUDY    47  46  95 S6        29.63F FOG
FRANKFORT      DRIZZLE   47  46  94 SE6       29.57F
GAYLORD        CLOUDY    44  43  96 S9        29.63S FOG
GRAYLING       CLOUDY    48  46  93 CALM      29.64F
HARBOR SPRINGS MIX PCPN  47  44  90 S3        29.62F
HOUGHTON LAKE  LGT RAIN  47  45  93 S9        29.65F FOG
MANISTEE       CLOUDY    48  45  87 S8        29.58F
OSCODA         CLOUDY    48  45  89 S9G17     29.68F
PELLSTON       LGT RAIN  46  44  93 S7        29.62F FOG
TRAVERSE CITY  LGT RAIN  50  44  80 CALM      29.58F
$$
MIZ007>008-015-232100-
EASTERN UPPER MICHIGAN

CITY           SKY/WX    TMP DP  RH WIND       PRES   REMARKS
KINROSS        CLOUDY    39  39 100 SE9       29.61S VSB<1/4
MACKINAC ISLAN CLOUDY    46  46  99 S8        29.61S FOG
NEWBERRY       FOG       42  42 100 S15G23    29.56S VSB 1
S. S. MARIE    FOG       42  41  96 E7        29.60F VSB<1/4
$$
MIZ004>006-011>014-085-232100-
CENTRAL UPPER MICHIGAN

CITY           SKY/WX    TMP DP  RH WIND       PRES   REMARKS
MANISTIQUE     CLOUDY    41  41  99 S8        29.54F FOG
ESCANABA       CLOUDY    43  39  87 S10       29.51S
MENOMINEE      CLOUDY    46  45  93 SW7       29.48F
SAWYER-GWINN   FOG       43  41  93 S10       29.48F VSB 0
$$
MIZ001>003-009>011-084-232100-
WESTERN UPPER MICHIGAN

CITY           SKY/WX    TMP DP  RH WIND       PRES   REMARKS
IRON MOUNTAIN  FOG       43  42  97 SE7       29.46F VSB<1/4
HOUGHTON       CLOUDY    43  39  86 E5        29.42F
COPPER HARBOR    N/A     47  41  80 CALM      29.43F
IRONWOOD       CLOUDY    46  46 100 S7        29.37F
$$

ABBREVIATIONS USED IN REMARKS
   TC - TEMPERATURE IN CELSIUS
  WCI - WIND CHILL INDEX
   HX - HEAT INDEX
  VSB - VISIBILITY




USA.gov is the U.S. government's official web portal to all federal, state and local government web resources and services.